Current weather by "City, St" or "zip code"  
 
Advertise Here

Current Conditions: Clearfield, Clearfield-Lawrence Airport, PA

Fair


65.0 F

Last Updated on Sep 16 2021, 11:54 pm EDT
Humidity: 97%
Wind Speed: N 4.6 mph
Barometer 30.24 in
Dewpoint: 64.0 F
Visibility: 10.00 mi
Precip: --
Heat Index: NA
Wind Chill: NA
Current conditions at:

Clearfield, Clearfield-Lawrence Airport, PA (KFIG)

Lat: 41.04667 Lon: 78.41167

Local Radar Image active severe weather and emergency alerts image image weather storm and storm spotter reports image weather observation monitoring service image
Local
Radar
Active
Alerts
Storm Reports Obs
Monitoring

Sign-up For Email & Text Message Weather Alert Notification Services



Advertise Here

Observation History for Clearfield, Clearfield-Lawrence Airport, PA


Time Wind
(mph)
Vis
(mi)
Weather Precip (in) Temperature (F) Relative
Humidity
Wind
Chill
(F)
Heat
Index
(F)
Pressure
Air Dwpt altimeter
(in)
sea level
(mb)
Rmks
11:54 pm EDT N 4.6 10.00 Fair -- 65.0 64.0 97% NA NA 30.24 1023.4
10:54 pm EDT NE 5.8 10.00 Overcast -- 67.0 64.0 91% NA NA 30.25 1023.7
9:54 pm EDT E 5.8 10.00 Overcast -- 67.0 64.0 91% NA NA 30.25 1024.1
8:54 pm EDT E 6.9 10.00 Overcast -- 68.0 64.9 90% NA NA 30.24 1023.7
7:54 pm EDT NE 5.8 10.00 Overcast -- 68.0 64.9 90% NA NA 30.23 1023.1
6:54 pm EDT NE 4.6 10.00 Overcast -- 69.0 64.9 87% NA NA 30.21 1022.4
5:54 pm EDT NE 4.6 10.00 Overcast -- 70.0 64.9 84% NA NA 30.20 1022.3
4:54 pm EDT NE 5.8 10.00 Overcast -- 71.0 64.9 81% NA NA 30.20 1022.0
3:54 pm EDT 4.6 10.00 Mostly Cloudy -- 71.0 64.0 79% NA NA 30.20 1022.0
2:54 pm EDT NE 8.1 10.00 Overcast -- 70.0 64.9 84% NA NA 30.21 1022.5
1:54 pm EDT E 5.8 10.00 Overcast -- 67.0 63.0 87% NA NA 30.23 1023.4
12:54 pm EDT NE 5.8 10.00 Overcast -- 66.0 62.1 87% NA NA 30.24 1023.7
11:54 am EDT E 5.8 10.00 Overcast -- 65.0 61.0 87% NA NA 30.24 1023.7
10:54 am EDT NE 9.2 10.00 Overcast -- 63.0 60.1 90% 62 NA 30.24 1023.6
9:54 am EDT E 4.6 10.00 Overcast -- 61.0 59.0 93% 61 NA 30.24 1023.6
8:54 am EDT NE 5.8 10.00 Overcast -- 60.0 59.0 96% 60 NA 30.22 1022.9
7:54 am EDT N 0.0 10.00 Overcast -- 60.0 59.0 96% NA NA 30.20 1022.4
6:54 am EDT NE 4.6 10.00 Overcast -- 60.0 57.9 93% 60 NA 30.18 1021.8
5:54 am EDT N 4.6 10.00 Overcast -- 60.0 59.0 96% 60 NA 30.16 1020.9
4:54 am EDT NE 5.8 10.00 Overcast -- 61.0 59.0 93% 61 NA 30.15 1020.3
3:54 am EDT NE 5.8 10.00 Overcast -- 61.0 59.0 93% 61 NA 30.14 1020.0
2:54 am EDT N 5.8 0.50 Fog -- 60.0 60.1 100% 60 NA 30.13 1019.9
1:54 am EDT N 3.5 5.00 Fog/Mist -- 61.0 61.0 100% NA NA 30.13 1019.8
12:54 am EDT NE 3.5 10.00 Overcast -- 62.0 60.1 93% NA NA 30.13 1019.6

Regional Weather Observation


Clearfield, Clearfield-Lawrence Airport, PA (KFIG)

Fair
65.0 F

St Marys Municipal Airport, PA (KOYM)

Overcast
64.0 F

Bradford Regional Airport, PA (KBFD)

Overcast
64.0 F

Indiana / Stewart Field, PA (KIDI)

NULL
66.0 F

Franklin, Venango Regional Airport, PA (KFKL)

Fair
63.0 F

Johnstown - Cambria County Airport, PA (KJST)

Mostly Cloudy
67.0 F
Advertise Here


Advertise Here